EW7541 Weather Reports


time (UTC)temp
F
wind
direction
speed
knots
gust
knots
rain 1hr
in
rain 24hr
in
rain mn
in
humidity
%
barometer
mb
20260504081019 51 0.0 0.0 0.00 0.00 0.00 64 1008.3
20260504050019 53 0.0 0.0 0.00 0.00 0.00 60 1009.3
20260504045019 53 0.0 0.0 0.00 0.00 0.00 59 1009.5
20260504044019 53 0.0 0.0 0.00 0.00 0.00 59 1009.2
20260504043022 53 0.0 0.0 0.00 0.00 0.00 59 1009.1
20260504042023 53 0.0 0.0 0.00 0.00 0.00 59 1009.1
20260504041020 53 0.0 0.0 0.00 0.00 0.00 59 1009.3
20260504040019 53 0.0 0.0 0.00 0.00 0.00 59 1009.3
20260504035019 53 0.0 0.0 0.00 0.00 0.00 61 1009.2
20260504034019 53 0.0 0.0 0.00 0.00 0.00 62 1009.1
20260504033039 53 0.0 0.0 0.00 0.00 0.00 59 1009.1
20260504032019 53 0.0 0.0 0.00 0.00 0.00 60 1009.0
20260504031019 54 0.0 0.0 0.00 0.00 0.00 57 1009.2
20260504030019 54 0.0 0.0 0.00 0.00 0.00 58 1009.2
20260504025019 53 0.0 0.0 0.00 0.00 0.00 61 1008.9
20260504024019 53 0.0 0.0 0.00 0.00 0.00 63 1008.8
20260504023019 52 0.0 0.0 0.00 0.00 0.00 63 1008.7
20260504022019 52 0.0 0.0 0.00 0.00 0.00 62 1008.6
20260504021019 52 0.0 0.0 0.00 0.00 0.00 60 1008.2
20260504020019 52 0.0 0.0 0.00 0.00 0.00 60 1008.2
20260504015019 52 0.0 0.0 0.00 0.00 0.00 60 1008.1
20260504014019 52 0.0 0.0 0.00 0.00 0.00 60 1007.7
20260504013019 52 0.0 0.0 0.00 0.00 0.00 61 1007.6
20260504012019 52 0.0 0.0 0.00 0.00 0.00 59 1007.5
20260504011019 52 0.0 0.0 0.00 0.00 0.00 59 1007.2
20260504010019 52 0.0 0.0 0.00 0.00 0.00 59 1007.2
20260504005019 53 0.0 0.0 0.00 0.00 0.00 59 1007.1
20260504004019 53 0.0 0.0 0.00 0.00 0.00 59 1006.8
20260504003038 53 0.0 0.0 0.00 0.00 0.00 59 1006.8
20260504002019 54 0.0 0.0 0.00 0.00 0.00 60 1006.8
20260504001019 54 0.0 0.0 0.00 0.00 0.00 59 1006.8
20260504000019 55 0.0 0.0 0.00 0.00 0.00 58 1007.0
20260503235019 56 0.0 0.0 0.00 0.00 0.00 57 1006.8
20260503234019 56 0.0 0.0 0.00 0.00 0.00 54 1006.9
20260503233039 57 0.0 0.0 0.00 0.00 0.00 53 1006.9
20260503232018 57 0.0 0.0 0.00 0.00 0.00 52 1007.1
20260503231018 57 0.0 1.7 0.00 0.00 0.00 49 1007.1
20260503230018 58 0.0 0.0 0.00 0.00 0.00 50 1007.1
20260503225019 58 0.0 0.0 0.00 0.00 0.00 49 1007.1
20260503224039 59 0.0 0.0 0.00 0.00 0.00 48 1007.4
20260503223018 59 0.0 0.0 0.00 0.00 0.00 48 1007.3
20260503222019 60 0.0 1.7 0.00 0.00 0.00 47 1007.4
20260503221019 60 0.0 0.0 0.00 0.00 0.00 44 1007.4
20260503220018 60 0.0 0.0 0.00 0.00 0.00 44 1007.4
20260503215018 61 0.0 1.7 0.00 0.00 0.00 44 1007.4
20260503214039 61 0.0 0.0 0.00 0.00 0.00 44 1007.5
20260503213018 61 0.0 0.0 0.00 0.00 0.00 41 1007.7
20260503212019 60 0.0 0.0 0.00 0.00 0.00 40 1007.8
20260503211019 61 0.0 0.0 0.00 0.00 0.00 43 1007.8
20260503210019 61 0.0 1.7 0.00 0.00 0.00 41 1007.6
20260503205019 61 0.0 0.9 0.00 0.00 0.00 39 1008.0
20260503204018 61 0.0 0.0 0.00 0.00 0.00 36 1008.0
20260503203018 61 0.0 0.0 0.00 0.00 0.00 43 1008.0
20260503202038 61 0.0 0.0 0.00 0.00 0.00 43 1008.3
20260503201019 61 0.0 0.0 0.00 0.00 0.00 43 1008.5
20260503200018 61 0.0 0.0 0.00 0.00 0.00 39 1008.7
20260503195020 62 0.0 0.0 0.00 0.00 0.00 43 1009.0
20260503194019 62 0.0 0.9 0.00 0.00 0.00 43 1009.1
20260503193018 62 0.0 0.0 0.00 0.00 0.00 46 1009.2
20260503192038 62 0.0 0.0 0.00 0.00 0.00 42 1009.4
20260503191020 62 0.0 0.0 0.00 0.00 0.00 46 1009.5
20260503190020 62 0.0 4.3 0.00 0.00 0.00 47 1009.5
20260503185038 62 0.0 1.7 0.00 0.00 0.00 47 1009.6
20260503184018 62 0.0 0.0 0.00 0.00 0.00 45 1009.7
20260503183020 63 0.0 0.0 0.00 0.00 0.00 46 1009.9
20260503182020 62 0.0 0.0 0.00 0.00 0.00 47 1009.9
20260503181018 61 0.0 0.0 0.00 0.00 0.00 49 1009.9
20260503180020 61 0.0 1.7 0.00 0.00 0.00 46 1010.0
20260503175020 62 0.0 1.7 0.00 0.00 0.00 46 1009.9
20260503174020 62 0.0 0.0 0.00 0.00 0.00 46 1010.0
20260503173020 61 0.0 0.0 0.00 0.00 0.00 45 1009.9
20260503172018 60 0.0 1.7 0.00 0.00 0.00 45 1009.9
20260503171020 60 0.0 4.3 0.00 0.00 0.00 45 1010.3
20260503131020 47 0.0 0.0 0.00 0.00 0.00 73 1009.4